Juprelle, Belgium
Current Conditions -  °F | °C
As of 11:50 PM on Monday 24 Nov 2014 (Local Time) from EBLG Reporting Station
Clear Clear  
Wind Chill: 36°   Ceiling: Unl
Heat Index: 39°   Visibility: 6mi
Dew Point: 36°   Wind: 5mph
Humidity: 87%   Direction: 120°ESE
Pressure: 30.3"   Gusts: NA
Location:  50.71°N, 5.53°E
Report Text: EBLG 242250Z 12004KT CAVOK 04/02 Q1026 NOSIG
Loading
Personal Weather Stations






























Interactive Weather Map New forecast layout! Learn more

10-Day Weather Forecast

Advertisements
Track Severe Weather on mobile